STARLINK-36514, 67641

Orbit data source: Space-Track

STARLINK-36514, 67641 is a payload satellite owned by SpaceX/Seattle (US) in LEO that was launched on Fri, 30 Jan 2026 UTC via an FALCON 9 launch vehicle from the Air Force Eastern Test Range (AFETR). Payload-class satellites include a variety of spacecraft equipped with specific instruments for various scientific and technological missions. These include communications satellites like Starlink; space stations such as the ISS; scientific satellites like the Hubble; Earth observation satellites from companies like Planet Labs, Umbra, and HawkEye 360; GPS; miniature CubeSats for education and research; and military/defense satellites.

Loading next visibility...
Identifier
67641, 2026-020AA
Orbit
LEO
Country
Flag of USUS
Related business
Manufacturer
SpaceX/Seattle
Mission
Operational spacecraft
Bus & Motor
STARLINK V2MO, Unknown motor
Mass
575 kg wet, ~530 kg dry
Launch date (UTC)
2026-01-30 (2 months ago)
Launch vehicle
FALCON 9
Launch site
Air Force Eastern Test Range (AFETR)
Object type
Payload
Rocket body
Debris
Shape & HBR
Unknown shape, 17.7 m
Radar Cross Section
RCS unknown

Expand to show TLE details & history
Last TLE update: 5 hours ago

TLE from 5 hours ago
0 STARLINK-36514
1 67641U 26020AA  26104.87656957  .00009623  00000-0  35862-3 0  9997
2 67641  42.9998 295.7690 0001590 270.0290  90.0379 15.27590699 11643
Epoch: 2026-04-14T21:02Z
TLE epoch observation values (Epoch: 2026-04-14T21:02:15.610Z)
Latitude
-0.00006°
Longitude
137.15736°
Altitude
482.793 km
Speed
7.626 km/s
True Right ascension
19h 43m 04s
True Declination
0° 00' 00"
Sunlit
Object was in daylight at epoch
Visualization orbit readout
Latitude
Unknown
Longitude
Unknown
Altitude
Unknown
Speed
Unknown
Apparent Right ascension
Unknown
Apparent Declination
Unknown
Sunlit
N/A
Visualization observer readout
Local Sidereal Time
08:08:29
Azimuth
Unknown
Elevation
Unknown
Doppler factor
Unknown
Orbital elements
Apogee altitude
486.054 km
Perigee altitude
483.871 km
Semi-major axis
6,863.099 km
Eccentricity
0.00016
Inclination
42.9998°
RAAN
295.769°
Arg. of periapsis
270.029°
True anomaly
90.05612°
Mean anomaly
90.0379°
Eccentric anomaly
90.04701°
Mean motion
3.81736 °/min
Orbital period
94.31 mins
BSTAR
0.00035862
Loading maneuver chart data...
Computing Atmospheric mass density...
Loading historical data...
Loading historical data...
Loading historical data...
Loading historical data...
Loading historical data...
Loading historical data...
Loading historical data...

Documentation

Showing up to 5 results
|